Flag for Austria Weather past 2 weeks in Gänserndorf, Lower Austria, Austria

Now
55 °F

Low clouds.


Feels Like: N/A
Forecast: 54 / 67 °F
Wind: N/A

Location: Wien / Schwechat-Flughafen

Current Time: Oct 1, 2014 at 6:12:52 AM

Latest Report: Oct 1, 2014 at 5:00 AM


Visibility: 2 mi

Pressure: 30.28 "Hg

Humidity: 98%

Dew point: 54 °F

Location of GänserndorfLocation

Historic Weather in Gänserndorf — Graph

°F

Gänserndorf temperature yesterday

Maximum temperature yesterday: 63 °F (at 4:00 PM)
Minimum temperature yesterday: 50 °F (at 3:00 AM)
Average temperature yesterday: 56 °F

Past Weeks' High & Low Weather Summary

 TemperatureHumidityPressure
High77 °F (Sep 21, 2:00 PM)100% (Sep 16, 5:00 AM)30.42 "Hg (Sep 16, 5:00 AM)
Low39 °F (Sep 24, 6:00 AM)52% (Sep 21, 2:00 PM)29.79 "Hg (Sep 22, 3:00 AM)
Average59 °F81%30.11 "Hg
* Reported Sep 16 4:00 AM — Oct 1 4:00 AM, Gänserndorf, Weather by CustomWeather, © 2014

Note: Actual official high and low records may vary slightly from our data, if they occured in-between our weather recording intervals... More about our weather records

Advertising

Gänserndorf weather history for previous 24 hours

 ConditionsComfort  
Time TempWeatherWind HumidityBarometerVisibility
4:00 AM
Oct 1
55 °FLow clouds.N/A99%30.28 "Hg2 mi
3:00 AM54 °FLight rain. Low clouds.N/A99%30.28 "Hg2 mi
2:00 AM54 °FPassing clouds.N/A98%30.28 "Hg1 mi
1:00 AM55 °FLight rain. Passing clouds.N/A99%30.28 "Hg1 mi
12:00 AM54 °FLight rain. Passing clouds.N/A99%30.28 "Hg1 mi
11:00 PM
Sep 30
57 °FPassing clouds.N/A97%30.29 "Hg2 mi
10:00 PM57 °FPassing clouds.N/A96%30.28 "Hg3 mi
9:00 PM58 °FOvercast.N/A94%30.28 "Hg4 mi
8:00 PM59 °FPassing clouds.N/A92%30.29 "Hg6 mi
7:00 PM60 °FPassing clouds.N/A90%30.27 "Hg4 mi
6:00 PM63 °FScattered clouds.N/A82%30.27 "Hg6 mi
5:00 PM63 °FPassing clouds.N/A83%30.27 "Hg6 mi
4:00 PM63 °FPassing clouds.N/A81%30.28 "Hg7 mi
3:00 PM61 °FPartly sunny.N/A84%30.29 "Hg5 mi
2:00 PM60 °FLow clouds.N/A86%30.30 "Hg5 mi
1:00 PM57 °FLow clouds.5 mph92%30.32 "Hg3 mi
12:00 PM56 °FLow clouds.N/A95%30.32 "Hg2 mi
11:00 AM55 °FLow clouds.N/A98%30.33 "Hg2 mi
10:00 AM54 °FLow clouds.N/A99%30.33 "Hg1 mi
9:00 AM53 °FLight rain. Low clouds.N/A99%30.33 "Hg1 mi
8:00 AM53 °FLow clouds.N/A99%30.32 "Hg1 mi
7:00 AM52 °FLow clouds.N/A99%30.31 "Hg2 mi
6:00 AM52 °FLow clouds.N/A99%30.31 "Hg2 mi
Weather by CustomWeather, © 2014

See weather overviewHow to use our weather pages